sim
Sign-in with your pilot id or email,
or register
Callsign
Passwort

Schedule Details

Flight Number: OEC262
Departure: Agadir Al Massira Airport (GMAD) at Time
Arrival: Fuerteventura Airport (GCFV) at Time

Weather Information
Getting current METAR information for GMAD 211830Z 25006KT 220V280 CAVOK 26/15 Q1010 NOSIG
Getting current METAR information for GCFV 211830Z 01019KT CAVOK 26/18 Q1013

Schedule Frequency

Route Map